Preview of NWS' New Version of Forecast
This preview is not operational and should not be used for support decisions.

Regional Weather Roundup (RWR)

Issued by National Weather Service (NWS)

                            
000
ASPQ40 PGUM 250510
RWRPQ 
WEATHER ROUNDUP FOR THE MARIANAS AND MICRONESIA
NATIONAL WEATHER SERVICE TIYAN GU
300 PM CHST TUE JUN 25 2019

GUZ001>004-250600-
MARIANA ISLANDS-
  
CITY           SKY/WX    TMP DP  RH WIND       PRES   REMARKS
GUAM AIRPORT   MOSUNNY   88  73  62 E16G23    29.87F HX  96           
ANDERSEN AFB   MOSUNNY   86  75  70 E13G21    29.88F HX  95           
ROTA AIRPORT   PTSUNNY   86  72  62 E14       29.88F HX  92           
TINIAN AP      MOSUNNY   90  75  62 E16       29.87F HX 100           
SAIPAN AP      MOSUNNY   88  75  66 E15       29.89F HX  97           

$$

PMZ161-250600-
REPUBLIC OF PALAU-
  
CITY           SKY/WX    TMP DP  RH WIND       PRES   REMARKS
KOROR AP       PTSUNNY   84  75  74 W9        29.82F HX  92           
KOROR WSO      NOT AVBL                                               

$$

PMZ171>174-250600-
FEDERATED STATES OF MICRONESIA-
  
CITY           SKY/WX    TMP DP  RH WIND       PRES   REMARKS
YAP AIRPORT    PTSUNNY   90  81  74 SE8       29.80F HX 108           
CHUUK AP       CLOUDY    82  79  89 VRB5      29.80F HX  93           
POHNPEI AP     NOT AVBL                                               
POHNPEI WSO    LGT RAIN  79  77  94 E5        29.86R                  
KOSRAE AP      NOT AVBL                                               

$$

PMZ181-250600-
REPUBLIC OF THE MARSHALL ISLANDS-
  
CITY           SKY/WX    TMP DP  RH WIND       PRES   REMARKS
KWAJALEIN AP   SUNNY     84  79  84 E15       29.83S HX  96           
MAJURO AP      PTSUNNY   86  77  74 E14       29.82  HX  97           
MAJURO WSO     PTSUNNY   86  79  79 SE6       29.81S HX  99           

$$